Time,TemperatureF,DewpointF,PressureIn,WindDirection,WindDirectionDegrees,WindSpeedMPH,WindSpeedGustMPH,Humidity,HourlyPrecipIn,Conditions,Clouds,dailyrainin,SoftwareType,DateUTC
2014-01-02 00:01:00,19.7,11.8,30.34,NE,39,1.0,1.0,71,0.00,,,0.00,Wunderground v.1.15,2014-01-02 05:01:00,
2014-01-02 00:02:00,19.7,12.1,30.33,NE,48,1.0,2.0,72,0.00,,,0.00,Wunderground v.1.15,2014-01-02 05:02:00,
2014-01-02 00:03:00,19.7,11.8,30.34,NE,48,1.0,2.0,71,0.00,,,0.00,Wunderground v.1.15,2014-01-02 05:03:00,
2014-01-02 00:07:00,19.8,11.9,30.34,NE,48,1.0,2.0,71,0.00,,,0.00,Wunderground v.1.15,2014-01-02 05:07:00,
2014-01-02 00:12:00,19.9,12.0,30.34,NE,48,1.0,1.0,71,0.00,,,0.00,Wunderground v.1.15,2014-01-02 05:12:00,
2014-01-02 00:13:00,19.9,12.0,30.34,NE,48,1.0,3.0,71,0.00,,,0.00,Wunderground v.1.15,2014-01-02 05:13:00,
2014-01-02 00:14:00,20.0,12.1,30.34,ENE,67,1.0,3.0,71,0.00,,,0.00,Wunderground v.1.15,2014-01-02 05:14:00,
2014-01-02 00:19:00,20.0,12.4,30.34,ENE,59,1.0,3.0,72,0.00,,,0.00,Wunderground v.1.15,2014-01-02 05:19:00,
2014-01-02 00:24:00,20.0,12.7,30.33,ENE,76,1.0,2.0,73,0.00,,,0.00,Wunderground v.1.15,2014-01-02 05:24:00,
2014-01-02 00:29:00,20.0,13.0,30.33,ENE,75,1.0,2.0,74,0.00,,,0.00,Wunderground v.1.15,2014-01-02 05:29:00,
2014-01-02 00:36:00,19.9,13.3,30.33,ENE,76,1.0,1.0,75,0.00,,,0.00,Wunderground v.1.15,2014-01-02 05:36:00,
2014-01-02 00:41:00,19.8,13.5,30.33,ENE,75,1.0,1.0,76,0.00,,,0.00,Wunderground v.1.15,2014-01-02 05:41:00,
2014-01-02 00:46:00,19.7,13.7,30.33,ENE,63,1.0,3.0,77,0.00,,,0.00,Wunderground v.1.15,2014-01-02 05:46:00,
2014-01-02 00:51:00,19.6,13.6,30.33,ENE,78,1.0,1.0,77,0.00,,,0.00,Wunderground v.1.15,2014-01-02 05:51:00,
2014-01-02 00:56:00,19.5,13.8,30.32,East,88,1.0,2.0,78,0.00,,,0.00,Wunderground v.1.15,2014-01-02 05:56:00,
2014-01-02 01:01:00,19.4,13.7,30.32,East,88,1.0,1.0,78,0.00,,,0.00,Wunderground v.1.15,2014-01-02 06:01:00,
2014-01-02 01:06:00,19.3,13.9,30.32,East,87,1.0,1.0,79,0.00,,,0.00,Wunderground v.1.15,2014-01-02 06:06:00,
2014-01-02 01:12:00,19.2,13.8,30.32,ENE,67,0.0,1.0,79,0.00,,,0.00,Wunderground v.1.15,2014-01-02 06:12:00,
2014-01-02 01:17:00,19.1,13.7,30.32,ENE,75,1.0,3.0,79,0.00,,,0.00,Wunderground v.1.15,2014-01-02 06:17:00,
2014-01-02 01:23:00,18.9,13.5,30.32,ENE,71,1.0,1.0,79,0.00,,,0.00,Wunderground v.1.15,2014-01-02 06:23:00,
2014-01-02 01:28:00,18.9,13.7,30.32,ENE,67,1.0,2.0,80,0.00,,,0.00,Wunderground v.1.15,2014-01-02 06:28:00,
2014-01-02 01:33:00,18.8,13.7,30.32,ENE,71,1.0,1.0,80,0.00,,,0.00,Wunderground v.1.15,2014-01-02 06:33:00,
2014-01-02 01:38:00,18.8,13.7,30.32,ENE,75,1.0,2.0,80,0.00,,,0.00,Wunderground v.1.15,2014-01-02 06:38:00,
2014-01-02 01:43:00,18.7,13.8,30.31,ENE,66,1.0,1.0,81,0.00,,,0.00,Wunderground v.1.15,2014-01-02 06:43:00,
2014-01-02 01:48:00,18.6,13.7,30.31,ENE,75,1.0,2.0,81,0.00,,,0.00,Wunderground v.1.15,2014-01-02 06:48:00,
2014-01-02 01:53:00,18.6,13.7,30.32,ENE,61,1.0,2.0,81,0.00,,,0.00,Wunderground v.1.15,2014-01-02 06:53:00,
2014-01-02 01:58:00,18.6,13.7,30.32,ENE,63,1.0,2.0,81,0.00,,,0.00,Wunderground v.1.15,2014-01-02 06:58:00,
2014-01-02 02:04:00,18.6,14.0,30.32,East,86,1.0,2.0,82,0.00,,,0.00,Wunderground v.1.15,2014-01-02 07:04:00,
2014-01-02 02:08:00,18.5,13.9,30.32,East,82,1.0,2.0,82,0.00,,,0.00,Wunderground v.1.15,2014-01-02 07:08:00,
2014-01-02 02:13:00,18.6,14.0,30.31,ENE,78,2.0,2.0,82,0.00,,,0.00,Wunderground v.1.15,2014-01-02 07:13:00,
2014-01-02 02:18:00,18.5,13.9,30.32,ENE,78,1.0,2.0,82,0.00,,,0.00,Wunderground v.1.15,2014-01-02 07:18:00,
2014-01-02 02:23:00,18.6,14.0,30.31,ENE,78,0.0,1.0,82,0.00,,,0.00,Wunderground v.1.15,2014-01-02 07:23:00,
2014-01-02 02:28:00,18.6,14.0,30.31,ENE,78,1.0,1.0,82,0.00,,,0.00,Wunderground v.1.15,2014-01-02 07:28:00,
2014-01-02 02:33:00,18.5,13.9,30.31,ENE,78,1.0,1.0,82,0.00,,,0.00,Wunderground v.1.15,2014-01-02 07:33:00,
2014-01-02 02:38:00,18.5,13.9,30.31,ENE,78,1.0,1.0,82,0.00,,,0.00,Wunderground v.1.15,2014-01-02 07:38:00,
2014-01-02 02:43:00,18.5,13.9,30.31,ENE,78,1.0,1.0,82,0.00,,,0.00,Wunderground v.1.15,2014-01-02 07:43:00,
2014-01-02 02:48:00,18.5,13.9,30.31,East,87,1.0,2.0,82,0.00,,,0.00,Wunderground v.1.15,2014-01-02 07:48:00,
2014-01-02 02:53:00,18.4,13.8,30.31,East,87,1.0,1.0,82,0.00,,,0.00,Wunderground v.1.15,2014-01-02 07:53:00,
2014-01-02 02:58:00,18.5,14.2,30.31,East,87,1.0,1.0,83,0.00,,,0.00,Wunderground v.1.15,2014-01-02 07:58:00,
2014-01-02 03:03:00,18.5,14.2,30.31,East,87,1.0,1.0,83,0.00,,,0.00,Wunderground v.1.15,2014-01-02 08:03:00,
2014-01-02 03:09:00,18.5,14.2,30.31,East,87,1.0,1.0,83,0.00,,,0.00,Wunderground v.1.15,2014-01-02 08:09:00,
2014-01-02 03:14:00,18.5,14.2,30.31,East,86,1.0,2.0,83,0.00,,,0.00,Wunderground v.1.15,2014-01-02 08:14:00,
2014-01-02 03:19:00,18.4,14.1,30.30,ENE,65,1.0,2.0,83,0.00,,,0.00,Wunderground v.1.15,2014-01-02 08:19:00,
2014-01-02 03:24:00,18.4,14.1,30.30,East,84,1.0,1.0,83,0.00,,,0.00,Wunderground v.1.15,2014-01-02 08:24:00,
2014-01-02 03:29:00,18.4,14.1,30.30,ESE,104,1.0,2.0,83,0.00,,,0.00,Wunderground v.1.15,2014-01-02 08:29:00,
2014-01-02 03:34:00,18.4,14.1,30.30,East,82,1.0,1.0,83,0.00,,,0.00,Wunderground v.1.15,2014-01-02 08:34:00,
2014-01-02 03:39:00,18.5,14.2,30.30,East,82,1.0,1.0,83,0.00,,,0.00,Wunderground v.1.15,2014-01-02 08:39:00,
2014-01-02 03:46:00,18.4,14.1,30.30,East,91,1.0,3.0,83,0.00,,,0.00,Wunderground v.1.15,2014-01-02 08:46:00,
2014-01-02 03:51:00,18.4,14.1,30.30,ENE,72,1.0,1.0,83,0.00,,,0.00,Wunderground v.1.15,2014-01-02 08:51:00,
2014-01-02 03:56:00,18.4,14.1,30.30,ENE,65,2.0,3.0,83,0.00,,,0.00,Wunderground v.1.15,2014-01-02 08:56:00,
2014-01-02 04:01:00,18.3,14.0,30.30,East,91,1.0,1.0,83,0.00,,,0.00,Wunderground v.1.15,2014-01-02 09:01:00,
2014-01-02 04:06:00,18.2,13.9,30.29,ENE,65,2.0,2.0,83,0.00,,,0.00,Wunderground v.1.15,2014-01-02 09:06:00,
2014-01-02 04:12:00,18.2,13.9,30.29,NE,45,1.0,2.0,83,0.00,,,0.00,Wunderground v.1.15,2014-01-02 09:12:00,
2014-01-02 04:17:00,18.1,13.8,30.29,East,83,1.0,2.0,83,0.00,,,0.00,Wunderground v.1.15,2014-01-02 09:17:00,
2014-01-02 04:22:00,18.1,13.8,30.29,East,84,1.0,3.0,83,0.00,,,0.00,Wunderground v.1.15,2014-01-02 09:22:00,
2014-01-02 04:27:00,18.0,13.7,30.28,East,86,1.0,5.0,83,0.00,,,0.00,Wunderground v.1.15,2014-01-02 09:27:00,
2014-01-02 04:32:00,17.9,13.3,30.28,NE,49,2.0,2.0,82,0.00,,,0.00,Wunderground v.1.15,2014-01-02 09:32:00,
2014-01-02 04:37:00,17.8,13.2,30.28,East,88,1.0,2.0,82,0.00,,,0.00,Wunderground v.1.15,2014-01-02 09:37:00,
2014-01-02 04:42:00,17.7,13.1,30.28,ENE,74,2.0,4.0,82,0.00,,,0.00,Wunderground v.1.15,2014-01-02 09:42:00,
2014-01-02 04:47:00,17.6,13.0,30.28,NE,34,2.0,4.0,82,0.00,,,0.00,Wunderground v.1.15,2014-01-02 09:47:00,
2014-01-02 04:52:00,17.5,13.2,30.28,NE,51,3.0,3.0,83,0.00,,,0.00,Wunderground v.1.15,2014-01-02 09:52:00,
2014-01-02 04:57:00,17.4,12.8,30.28,East,96,2.0,3.0,82,0.00,,,0.00,Wunderground v.1.15,2014-01-02 09:57:00,
2014-01-02 05:02:00,17.3,12.7,30.28,NNE,16,2.0,2.0,82,0.00,,,0.00,Wunderground v.1.15,2014-01-02 10:02:00,
2014-01-02 05:08:00,17.2,12.6,30.28,ENE,61,1.0,3.0,82,0.00,,,0.00,Wunderground v.1.15,2014-01-02 10:08:00,
2014-01-02 05:13:00,17.2,12.6,30.27,ESE,113,2.0,2.0,82,0.00,,,0.00,Wunderground v.1.15,2014-01-02 10:13:00,
2014-01-02 05:18:00,17.1,12.6,30.27,ENE,67,3.0,3.0,82,0.00,,,0.00,Wunderground v.1.15,2014-01-02 10:18:00,
2014-01-02 05:23:00,17.0,12.5,30.27,NE,46,2.0,4.0,82,0.00,,,0.00,Wunderground v.1.15,2014-01-02 10:23:00,
2014-01-02 05:28:00,17.0,12.5,30.27,ENE,59,2.0,4.0,82,0.00,,,0.00,Wunderground v.1.15,2014-01-02 10:28:00,
2014-01-02 05:33:00,17.0,12.7,30.27,NNE,30,1.0,4.0,83,0.00,,,0.00,Wunderground v.1.15,2014-01-02 10:33:00,
2014-01-02 05:38:00,16.9,12.6,30.27,East,88,2.0,5.0,83,0.00,,,0.00,Wunderground v.1.15,2014-01-02 10:38:00,
2014-01-02 05:43:00,16.8,12.5,30.27,NE,53,2.0,2.0,83,0.00,,,0.00,Wunderground v.1.15,2014-01-02 10:43:00,
2014-01-02 05:48:00,16.7,12.2,30.26,NE,48,2.0,3.0,82,0.00,,,0.00,Wunderground v.1.15,2014-01-02 10:48:00,
2014-01-02 05:54:00,16.7,12.2,30.26,ESE,114,2.0,4.0,82,0.00,,,0.00,Wunderground v.1.15,2014-01-02 10:54:00,
2014-01-02 05:59:00,16.7,12.2,30.26,North,11,2.0,4.0,82,0.00,,,0.00,Wunderground v.1.15,2014-01-02 10:59:00,
2014-01-02 06:04:00,16.7,12.2,30.27,NNE,19,2.0,3.0,82,0.00,,,0.00,Wunderground v.1.15,2014-01-02 11:04:00,
2014-01-02 06:09:00,16.7,12.2,30.26,East,96,2.0,5.0,82,0.00,,,0.00,Wunderground v.1.15,2014-01-02 11:09:00,
2014-01-02 06:14:00,16.7,12.2,30.26,East,80,3.0,5.0,82,0.00,,,0.00,Wunderground v.1.15,2014-01-02 11:14:00,
2014-01-02 06:19:00,16.6,12.1,30.26,NE,56,3.0,7.0,82,0.00,,,0.00,Wunderground v.1.15,2014-01-02 11:19:00,
2014-01-02 06:24:00,16.7,12.2,30.25,NE,34,3.0,3.0,82,0.00,,,0.00,Wunderground v.1.15,2014-01-02 11:24:00,
2014-01-02 06:29:00,16.7,12.4,30.25,ENE,71,2.0,5.0,83,0.00,,,0.00,Wunderground v.1.15,2014-01-02 11:29:00,
2014-01-02 06:36:00,16.6,12.3,30.26,NE,48,2.0,6.0,83,0.00,,,0.00,Wunderground v.1.15,2014-01-02 11:36:00,
2014-01-02 06:41:00,16.7,12.4,30.26,NE,45,2.0,2.0,83,0.00,,,0.00,Wunderground v.1.15,2014-01-02 11:41:00,
2014-01-02 06:46:00,16.7,12.4,30.26,ENE,64,2.0,6.0,83,0.00,,,0.00,Wunderground v.1.15,2014-01-02 11:46:00,
2014-01-02 06:51:00,16.7,12.4,30.26,ESE,110,3.0,3.0,83,0.00,,,0.00,Wunderground v.1.15,2014-01-02 11:51:00,
2014-01-02 06:56:00,16.6,12.1,30.26,NE,46,3.0,4.0,82,0.00,,,0.00,Wunderground v.1.15,2014-01-02 11:56:00,
2014-01-02 07:01:00,16.5,12.0,30.26,NNE,24,4.0,4.0,82,0.00,,,0.00,Wunderground v.1.15,2014-01-02 12:01:00,
2014-01-02 07:07:00,16.5,12.0,30.25,NNE,16,4.0,4.0,82,0.00,,,0.00,Wunderground v.1.15,2014-01-02 12:07:00,
2014-01-02 07:12:00,16.5,12.0,30.25,NNE,14,3.0,3.0,82,0.00,,,0.00,Wunderground v.1.15,2014-01-02 12:12:00,
2014-01-02 07:17:00,16.5,12.0,30.25,East,86,3.0,5.0,82,0.00,,,0.00,Wunderground v.1.15,2014-01-02 12:17:00,
2014-01-02 07:22:00,16.5,12.0,30.25,ENE,62,3.0,6.0,82,0.00,,,0.00,Wunderground v.1.15,2014-01-02 12:22:00,
2014-01-02 07:27:00,16.4,11.9,30.25,NNE,33,3.0,6.0,82,0.00,,,0.00,Wunderground v.1.15,2014-01-02 12:27:00,
2014-01-02 07:32:00,16.4,11.9,30.25,NNE,26,3.0,4.0,82,0.00,,,0.00,Wunderground v.1.15,2014-01-02 12:32:00,
2014-01-02 07:37:00,16.3,11.8,30.25,NE,34,3.0,5.0,82,0.00,,,0.00,Wunderground v.1.15,2014-01-02 12:37:00,
2014-01-02 07:42:00,16.3,11.8,30.25,NNE,25,3.0,6.0,82,0.00,,,0.00,Wunderground v.1.15,2014-01-02 12:42:00,
2014-01-02 07:47:00,16.2,11.7,30.25,NE,47,4.0,6.0,82,0.00,,,0.00,Wunderground v.1.15,2014-01-02 12:47:00,
2014-01-02 07:52:00,16.1,11.6,30.25,NE,56,4.0,5.0,82,0.00,,,0.00,Wunderground v.1.15,2014-01-02 12:52:00,
2014-01-02 07:57:00,16.1,11.6,30.25,NE,38,4.0,7.0,82,0.00,,,0.00,Wunderground v.1.15,2014-01-02 12:57:00,
2014-01-02 08:03:00,16.0,11.5,30.25,NE,36,3.0,4.0,82,0.00,,,0.00,Wunderground v.1.15,2014-01-02 13:03:00,
2014-01-02 08:08:00,16.0,11.5,30.25,East,87,3.0,4.0,82,0.00,,,0.00,Wunderground v.1.15,2014-01-02 13:08:00,
2014-01-02 08:13:00,16.0,11.5,30.24,NNE,28,3.0,5.0,82,0.00,,,0.00,Wunderground v.1.15,2014-01-02 13:13:00,
2014-01-02 08:19:00,16.0,11.5,30.25,NE,44,3.0,5.0,82,0.00,,,0.00,Wunderground v.1.15,2014-01-02 13:19:00,
2014-01-02 08:24:00,16.0,11.5,30.25,NNE,30,3.0,4.0,82,0.00,,,0.00,Wunderground v.1.15,2014-01-02 13:24:00,
2014-01-02 08:29:00,16.0,11.5,30.24,NNE,32,3.0,4.0,82,0.00,,,0.00,Wunderground v.1.15,2014-01-02 13:29:00,
2014-01-02 08:34:00,15.9,11.4,30.24,NNW,336,3.0,3.0,82,0.00,,,0.00,Wunderground v.1.15,2014-01-02 13:34:00,
2014-01-02 08:39:00,15.9,11.4,30.23,NE,38,3.0,3.0,82,0.00,,,0.00,Wunderground v.1.15,2014-01-02 13:39:00,
2014-01-02 08:44:00,15.8,11.3,30.24,ESE,119,3.0,6.0,82,0.00,,,0.00,Wunderground v.1.15,2014-01-02 13:44:00,
2014-01-02 08:49:00,15.8,11.3,30.24,NNE,28,3.0,6.0,82,0.00,,,0.00,Wunderground v.1.15,2014-01-02 13:49:00,
2014-01-02 08:56:00,15.8,11.3,30.23,ENE,60,3.0,4.0,82,0.00,,,0.00,Wunderground v.1.15,2014-01-02 13:56:00,
2014-01-02 09:01:00,15.7,11.2,30.23,ENE,62,4.0,4.0,82,0.00,,,0.00,Wunderground v.1.15,2014-01-02 14:01:00,
2014-01-02 09:07:00,15.6,11.1,30.23,NE,49,4.0,4.0,82,0.00,,,0.00,Wunderground v.1.15,2014-01-02 14:07:00,
2014-01-02 09:12:00,15.7,11.2,30.23,NE,38,3.0,6.0,82,0.00,,,0.00,Wunderground v.1.15,2014-01-02 14:12:00,
2014-01-02 09:17:00,15.7,11.2,30.23,NNE,28,3.0,6.0,82,0.00,,,0.00,Wunderground v.1.15,2014-01-02 14:17:00,
2014-01-02 09:22:00,15.7,11.2,30.23,East,90,3.0,4.0,82,0.00,,,0.00,Wunderground v.1.15,2014-01-02 14:22:00,
2014-01-02 09:28:00,15.7,11.2,30.23,NW,326,3.0,8.0,82,0.00,,,0.00,Wunderground v.1.15,2014-01-02 14:28:00,
2014-01-02 09:33:00,15.6,11.1,30.22,NE,48,3.0,5.0,82,0.00,,,0.00,Wunderground v.1.15,2014-01-02 14:33:00,
2014-01-02 09:38:00,15.5,11.0,30.22,ENE,59,3.0,7.0,82,0.00,,,0.00,Wunderground v.1.15,2014-01-02 14:38:00,
2014-01-02 09:44:00,15.5,11.0,30.22,NNW,332,4.0,4.0,82,0.00,,,0.00,Wunderground v.1.15,2014-01-02 14:44:00,
2014-01-02 09:49:00,15.5,11.3,30.22,NNE,32,3.0,4.0,83,0.00,,,0.00,Wunderground v.1.15,2014-01-02 14:49:00,
2014-01-02 09:54:00,15.6,11.4,30.22,NE,53,3.0,3.0,83,0.00,,,0.00,Wunderground v.1.15,2014-01-02 14:54:00,
2014-01-02 09:59:00,15.5,11.3,30.22,ENE,75,2.0,4.0,83,0.00,,,0.00,Wunderground v.1.15,2014-01-02 14:59:00,
2014-01-02 10:04:00,15.5,11.0,30.22,NNE,26,2.0,7.0,82,0.00,,,0.00,Wunderground v.1.15,2014-01-02 15:04:00,
2014-01-02 10:11:00,15.4,10.9,30.20,NNE,24,3.0,7.0,82,0.00,,,0.00,Wunderground v.1.15,2014-01-02 15:11:00,
2014-01-02 10:16:00,15.2,10.7,30.20,NW,310,3.0,7.0,82,0.00,,,0.00,Wunderground v.1.15,2014-01-02 15:16:00,
2014-01-02 10:21:00,15.1,10.6,30.19,ENE,60,4.0,4.0,82,0.00,,,0.00,Wunderground v.1.15,2014-01-02 15:21:00,
2014-01-02 10:26:00,15.1,10.6,30.19,ENE,61,3.0,7.0,82,0.00,,,0.00,Wunderground v.1.15,2014-01-02 15:26:00,
2014-01-02 10:31:00,15.0,10.5,30.19,NE,45,3.0,10.0,82,0.00,,,0.00,Wunderground v.1.15,2014-01-02 15:31:00,
2014-01-02 10:36:00,14.8,10.3,30.19,ESE,110,4.0,10.0,82,0.00,,,0.00,Wunderground v.1.15,2014-01-02 15:36:00,
2014-01-02 10:41:00,14.5,10.0,30.18,NNE,22,5.0,9.0,82,0.00,,,0.00,Wunderground v.1.15,2014-01-02 15:41:00,
2014-01-02 10:46:00,14.4,9.9,30.18,NE,51,5.0,9.0,82,0.00,,,0.00,Wunderground v.1.15,2014-01-02 15:46:00,
2014-01-02 10:52:00,14.3,9.8,30.18,NNW,337,3.0,3.0,82,0.00,,,0.00,Wunderground v.1.15,2014-01-02 15:52:00,
2014-01-02 10:57:00,14.3,9.8,30.17,NNE,14,3.0,8.0,82,0.00,,,0.00,Wunderground v.1.15,2014-01-02 15:57:00,
2014-01-02 11:02:00,14.4,9.9,30.16,North,11,4.0,6.0,82,0.00,,,0.00,Wunderground v.1.15,2014-01-02 16:02:00,
2014-01-02 11:08:00,14.4,9.9,30.16,ENE,59,4.0,8.0,82,0.00,,,0.00,Wunderground v.1.15,2014-01-02 16:08:00,
2014-01-02 11:13:00,14.3,9.8,30.15,NNE,22,4.0,8.0,82,0.00,,,0.00,Wunderground v.1.15,2014-01-02 16:13:00,
2014-01-02 11:18:00,14.0,9.2,30.15,NNE,21,5.0,8.0,81,0.00,,,0.00,Wunderground v.1.15,2014-01-02 16:18:00,
2014-01-02 11:23:00,13.9,9.1,30.14,NNE,17,4.0,5.0,81,0.00,,,0.00,Wunderground v.1.15,2014-01-02 16:23:00,
2014-01-02 11:28:00,13.7,9.0,30.14,East,94,4.0,7.0,81,0.00,,,0.00,Wunderground v.1.15,2014-01-02 16:28:00,
2014-01-02 11:33:00,13.6,8.9,30.14,WNW,284,5.0,5.0,81,0.00,,,0.00,Wunderground v.1.15,2014-01-02 16:33:00,
2014-01-02 11:38:00,13.4,8.7,30.13,WNW,294,4.0,10.0,81,0.00,,,0.00,Wunderground v.1.15,2014-01-02 16:38:00,
2014-01-02 11:43:00,13.2,8.5,30.12,NNE,28,4.0,5.0,81,0.00,,,0.00,Wunderground v.1.15,2014-01-02 16:43:00,
2014-01-02 11:48:00,13.2,8.5,30.12,ENE,61,3.0,5.0,81,0.00,,,0.00,Wunderground v.1.15,2014-01-02 16:48:00,
2014-01-02 11:53:00,12.9,8.2,30.12,NNE,33,4.0,5.0,81,0.00,,,0.00,Wunderground v.1.15,2014-01-02 16:53:00,
2014-01-02 11:59:00,12.6,7.9,30.11,East,89,5.0,10.0,81,0.00,,,0.00,Wunderground v.1.15,2014-01-02 16:59:00,
2014-01-02 12:04:00,12.4,7.7,30.10,NNE,24,5.0,9.0,81,0.00,,,0.00,Wunderground v.1.15,2014-01-02 17:04:00,
2014-01-02 12:11:00,12.3,7.6,30.10,ENE,59,5.0,5.0,81,0.00,,,0.00,Wunderground v.1.15,2014-01-02 17:11:00,
2014-01-02 12:16:00,12.2,7.5,30.09,NE,42,5.0,6.0,81,0.00,,,0.00,Wunderground v.1.15,2014-01-02 17:16:00,
2014-01-02 12:21:00,12.2,7.5,30.09,NNE,14,5.0,5.0,81,0.00,,,0.00,Wunderground v.1.15,2014-01-02 17:21:00,
2014-01-02 12:26:00,12.3,7.6,30.09,NNE,18,3.0,5.0,81,0.00,,,0.00,Wunderground v.1.15,2014-01-02 17:26:00,
2014-01-02 12:31:00,12.2,7.5,30.09,ENE,64,4.0,7.0,81,0.00,,,0.00,Wunderground v.1.15,2014-01-02 17:31:00,
2014-01-02 12:36:00,12.0,7.3,30.08,NW,312,5.0,7.0,81,0.00,,,0.00,Wunderground v.1.15,2014-01-02 17:36:00,
2014-01-02 12:42:00,11.9,7.2,30.08,East,90,3.0,6.0,81,0.00,,,0.00,Wunderground v.1.15,2014-01-02 17:42:00,
2014-01-02 12:47:00,11.9,7.2,30.08,NNE,29,3.0,6.0,81,0.00,,,0.00,Wunderground v.1.15,2014-01-02 17:47:00,
2014-01-02 12:52:00,11.7,7.0,30.07,NNE,30,5.0,9.0,81,0.00,,,0.00,Wunderground v.1.15,2014-01-02 17:52:00,
2014-01-02 12:57:00,11.6,6.9,30.06,NE,50,6.0,10.0,81,0.00,,,0.00,Wunderground v.1.15,2014-01-02 17:57:00,
2014-01-02 13:02:00,11.5,6.8,30.06,NE,39,5.0,6.0,81,0.00,,,0.00,Wunderground v.1.15,2014-01-02 18:02:00,
2014-01-02 13:08:00,11.6,6.9,30.06,NE,44,3.0,6.0,81,0.00,,,0.00,Wunderground v.1.15,2014-01-02 18:08:00,
2014-01-02 13:13:00,11.4,6.7,30.06,NE,38,4.0,5.0,81,0.00,,,0.00,Wunderground v.1.15,2014-01-02 18:13:00,
2014-01-02 13:18:00,11.3,6.6,30.05,NNE,22,4.0,5.0,81,0.00,,,0.00,Wunderground v.1.15,2014-01-02 18:18:00,
2014-01-02 13:23:00,11.3,6.6,30.05,NNE,24,5.0,5.0,81,0.00,,,0.00,Wunderground v.1.15,2014-01-02 18:23:00,
2014-01-02 13:28:00,11.4,6.7,30.05,NNE,30,4.0,5.0,81,0.00,,,0.00,Wunderground v.1.15,2014-01-02 18:28:00,
2014-01-02 13:33:00,11.3,6.6,30.06,North,5,3.0,6.0,81,0.00,,,0.00,Wunderground v.1.15,2014-01-02 18:33:00,
2014-01-02 13:38:00,11.0,6.3,30.05,ENE,73,5.0,10.0,81,0.00,,,0.00,Wunderground v.1.15,2014-01-02 18:38:00,
2014-01-02 13:43:00,11.0,6.3,30.05,East,80,4.0,9.0,81,0.00,,,0.00,Wunderground v.1.15,2014-01-02 18:43:00,
2014-01-02 13:48:00,10.9,6.2,30.04,NNE,30,4.0,9.0,81,0.00,,,0.00,Wunderground v.1.15,2014-01-02 18:48:00,
2014-01-02 13:53:00,10.9,6.2,30.04,North,360,4.0,5.0,81,0.00,,,0.00,Wunderground v.1.15,2014-01-02 18:53:00,
2014-01-02 13:59:00,10.8,6.1,30.04,NNE,21,4.0,7.0,81,0.00,,,0.00,Wunderground v.1.15,2014-01-02 18:59:00,
2014-01-02 14:04:00,10.8,6.1,30.04,North,360,4.0,4.0,81,0.00,,,0.00,Wunderground v.1.15,2014-01-02 19:04:00,
2014-01-02 14:09:00,10.7,6.0,30.05,NE,55,3.0,5.0,81,0.00,,,0.00,Wunderground v.1.15,2014-01-02 19:09:00,
2014-01-02 14:14:00,10.7,6.0,30.04,NNW,340,4.0,6.0,81,0.00,,,0.00,Wunderground v.1.15,2014-01-02 19:14:00,
2014-01-02 14:19:00,10.6,5.9,30.04,NNE,22,4.0,6.0,81,0.00,,,0.00,Wunderground v.1.15,2014-01-02 19:19:00,
2014-01-02 14:24:00,10.5,5.8,30.04,ENE,65,5.0,9.0,81,0.00,,,0.00,Wunderground v.1.15,2014-01-02 19:24:00,
2014-01-02 14:29:00,10.4,5.7,30.04,NW,308,5.0,9.0,81,0.00,,,0.00,Wunderground v.1.15,2014-01-02 19:29:00,
2014-01-02 14:34:00,10.4,5.7,30.03,NNE,33,3.0,8.0,81,0.00,,,0.00,Wunderground v.1.15,2014-01-02 19:34:00,
2014-01-02 14:39:00,10.2,5.5,30.02,NE,46,4.0,10.0,81,0.00,,,0.00,Wunderground v.1.15,2014-01-02 19:39:00,
2014-01-02 14:46:00,10.0,5.3,30.02,East,80,4.0,6.0,81,0.00,,,0.00,Wunderground v.1.15,2014-01-02 19:46:00,
2014-01-02 14:51:00,9.9,5.2,30.01,NNE,21,4.0,4.0,81,0.00,,,0.00,Wunderground v.1.15,2014-01-02 19:51:00,
2014-01-02 14:56:00,9.6,4.9,30.02,ENE,76,4.0,7.0,81,0.00,,,0.00,Wunderground v.1.15,2014-01-02 19:56:00,
2014-01-02 15:01:00,9.4,4.7,30.02,NE,56,6.0,6.0,81,0.00,,,0.00,Wunderground v.1.15,2014-01-02 20:01:00,
2014-01-02 15:06:00,9.2,4.6,30.01,NW,316,5.0,6.0,81,0.00,,,0.00,Wunderground v.1.15,2014-01-02 20:06:00,
2014-01-02 15:12:00,9.3,4.6,30.01,NNE,23,3.0,6.0,81,0.00,,,0.00,Wunderground v.1.15,2014-01-02 20:12:00,
2014-01-02 15:17:00,9.2,4.6,30.01,NE,44,3.0,6.0,81,0.00,,,0.00,Wunderground v.1.15,2014-01-02 20:17:00,
2014-01-02 15:22:00,9.4,4.7,30.00,NE,55,4.0,6.0,81,0.00,,,0.00,Wunderground v.1.15,2014-01-02 20:22:00,
2014-01-02 15:27:00,9.3,4.6,30.00,NNE,17,4.0,6.0,81,0.00,,,0.00,Wunderground v.1.15,2014-01-02 20:27:00,
2014-01-02 15:32:00,9.1,4.5,30.00,ENE,72,5.0,5.0,81,0.00,,,0.00,Wunderground v.1.15,2014-01-02 20:32:00,
2014-01-02 15:37:00,8.9,4.3,30.00,NE,42,5.0,9.0,81,0.00,,,0.00,Wunderground v.1.15,2014-01-02 20:37:00,
2014-01-02 15:43:00,8.7,4.1,29.99,NNW,336,4.0,5.0,81,0.00,,,0.00,Wunderground v.1.15,2014-01-02 20:43:00,
2014-01-02 15:48:00,8.6,4.0,30.00,North,5,3.0,5.0,81,0.00,,,0.00,Wunderground v.1.15,2014-01-02 20:48:00,
2014-01-02 15:53:00,8.6,4.0,29.99,NE,42,4.0,7.0,81,0.00,,,0.00,Wunderground v.1.15,2014-01-02 20:53:00,
2014-01-02 15:58:00,8.4,3.8,29.98,NE,40,5.0,12.0,81,0.00,,,0.00,Wunderground v.1.15,2014-01-02 20:58:00,
2014-01-02 16:03:00,8.3,3.7,29.98,NE,53,5.0,5.0,81,0.00,,,0.00,Wunderground v.1.15,2014-01-02 21:03:00,
2014-01-02 16:08:00,8.2,3.6,29.99,NE,56,4.0,5.0,81,0.00,,,0.00,Wunderground v.1.15,2014-01-02 21:08:00,
2014-01-02 16:13:00,8.1,3.5,29.98,NE,47,4.0,10.0,81,0.00,,,0.00,Wunderground v.1.15,2014-01-02 21:13:00,
2014-01-02 16:19:00,8.0,3.1,29.99,NE,34,5.0,10.0,80,0.00,,,0.00,Wunderground v.1.15,2014-01-02 21:19:00,
2014-01-02 16:26:00,7.8,3.2,29.99,North,11,4.0,11.0,81,0.00,,,0.00,Wunderground v.1.15,2014-01-02 21:26:00,
2014-01-02 16:31:00,7.8,3.2,29.99,North,360,4.0,5.0,81,0.00,,,0.00,Wunderground v.1.15,2014-01-02 21:31:00,
2014-01-02 16:36:00,7.7,3.1,29.98,NNE,28,5.0,10.0,81,0.00,,,0.00,Wunderground v.1.15,2014-01-02 21:36:00,
2014-01-02 16:41:00,7.8,3.2,29.98,NNW,338,6.0,6.0,81,0.00,,,0.00,Wunderground v.1.15,2014-01-02 21:41:00,
2014-01-02 16:46:00,7.9,3.3,29.98,NNE,25,3.0,6.0,81,0.00,,,0.00,Wunderground v.1.15,2014-01-02 21:46:00,
2014-01-02 16:51:00,8.0,3.4,29.97,NNE,13,4.0,6.0,81,0.00,,,0.00,Wunderground v.1.15,2014-01-02 21:51:00,
2014-01-02 16:56:00,8.0,3.4,29.97,NE,38,5.0,7.0,81,0.00,,,0.00,Wunderground v.1.15,2014-01-02 21:56:00,
2014-01-02 17:02:00,8.0,3.4,29.98,ENE,65,5.0,5.0,81,0.00,,,0.00,Wunderground v.1.15,2014-01-02 22:02:00,
2014-01-02 17:07:00,7.9,3.0,29.98,NNE,30,4.0,7.0,80,0.00,,,0.00,Wunderground v.1.15,2014-01-02 22:07:00,
2014-01-02 17:13:00,7.7,2.8,29.98,ENE,58,4.0,7.0,80,0.00,,,0.00,Wunderground v.1.15,2014-01-02 22:13:00,
2014-01-02 17:18:00,7.4,2.8,29.97,ESE,115,5.0,7.0,81,0.00,,,0.00,Wunderground v.1.15,2014-01-02 22:18:00,
2014-01-02 17:23:00,7.4,2.8,29.96,North,350,5.0,5.0,81,0.00,,,0.00,Wunderground v.1.15,2014-01-02 22:23:00,
2014-01-02 17:29:00,7.3,2.7,29.96,NNE,28,5.0,6.0,81,0.00,,,0.00,Wunderground v.1.15,2014-01-02 22:29:00,
2014-01-02 17:34:00,7.2,2.6,29.96,ENE,64,5.0,8.0,81,0.00,,,0.00,Wunderground v.1.15,2014-01-02 22:34:00,
2014-01-02 17:39:00,7.2,2.6,29.96,NE,50,5.0,8.0,81,0.00,,,0.00,Wunderground v.1.15,2014-01-02 22:39:00,
2014-01-02 17:44:00,7.3,2.7,29.96,North,355,5.0,5.0,81,0.00,,,0.00,Wunderground v.1.15,2014-01-02 22:44:00,
2014-01-02 17:49:00,7.3,2.7,29.96,NNE,28,4.0,9.0,81,0.00,,,0.00,Wunderground v.1.15,2014-01-02 22:49:00,
2014-01-02 17:56:00,7.1,2.5,29.96,NNE,16,6.0,8.0,81,0.00,,,0.00,Wunderground v.1.15,2014-01-02 22:56:00,
2014-01-02 18:01:00,7.0,2.4,29.96,NNE,24,6.0,6.0,81,0.00,,,0.00,Wunderground v.1.15,2014-01-02 23:01:00,
2014-01-02 18:06:00,7.0,2.4,29.96,North,355,5.0,10.0,81,0.00,,,0.00,Wunderground v.1.15,2014-01-02 23:06:00,
2014-01-02 18:12:00,6.9,2.3,29.96,NNE,17,3.0,4.0,81,0.00,,,0.00,Wunderground v.1.15,2014-01-02 23:12:00,
2014-01-02 18:18:00,6.8,2.2,29.96,North,10,4.0,11.0,81,0.00,,,0.00,Wunderground v.1.15,2014-01-02 23:18:00,
2014-01-02 18:23:00,6.7,2.1,29.96,NE,53,4.0,5.0,81,0.00,,,0.00,Wunderground v.1.15,2014-01-02 23:23:00,
2014-01-02 18:28:00,6.7,2.1,29.96,NNE,32,3.0,8.0,81,0.00,,,0.00,Wunderground v.1.15,2014-01-02 23:28:00,
2014-01-02 18:33:00,6.5,1.9,29.96,NE,54,4.0,7.0,81,0.00,,,0.00,Wunderground v.1.15,2014-01-02 23:33:00,
2014-01-02 18:38:00,6.4,1.8,29.95,ENE,59,4.0,7.0,81,0.00,,,0.00,Wunderground v.1.15,2014-01-02 23:38:00,
2014-01-02 18:43:00,6.2,1.4,29.95,NNW,345,6.0,7.0,80,0.00,,,0.00,Wunderground v.1.15,2014-01-02 23:43:00,
2014-01-02 18:48:00,6.0,1.4,29.95,NNW,348,6.0,7.0,81,0.00,,,0.00,Wunderground v.1.15,2014-01-02 23:48:00,
2014-01-02 18:53:00,5.9,1.3,29.94,NE,42,5.0,5.0,81,0.00,,,0.00,Wunderground v.1.15,2014-01-02 23:53:00,
2014-01-02 18:59:00,5.8,1.2,29.94,NE,51,5.0,5.0,81,0.00,,,0.00,Wunderground v.1.15,2014-01-02 23:59:00,
2014-01-02 19:04:00,5.7,0.9,29.93,NE,40,4.0,5.0,80,0.00,,,0.00,Wunderground v.1.15,2014-01-03 00:04:00,
2014-01-02 19:09:00,5.6,0.8,29.93,NE,42,5.0,7.0,80,0.00,,,0.00,Wunderground v.1.15,2014-01-03 00:09:00,
2014-01-02 19:14:00,5.4,0.6,29.93,NE,49,5.0,8.0,80,0.00,,,0.00,Wunderground v.1.15,2014-01-03 00:14:00,
2014-01-02 19:21:00,5.2,0.6,29.93,East,86,3.0,8.0,81,0.00,,,0.00,Wunderground v.1.15,2014-01-03 00:21:00,
2014-01-02 19:26:00,5.0,2.7,29.93,ENE,65,4.0,8.0,90,0.00,,,0.00,Wunderground v.1.15,2014-01-03 00:26:00,
2014-01-02 19:31:00,4.9,0.3,29.94,NNE,22,4.0,7.0,81,0.00,,,0.00,Wunderground v.1.15,2014-01-03 00:31:00,
2014-01-02 19:37:00,4.8,0.2,29.93,NE,51,4.0,7.0,81,0.00,,,0.00,Wunderground v.1.15,2014-01-03 00:37:00,
2014-01-02 19:42:00,4.6,0.1,29.93,NNE,19,5.0,6.0,81,0.00,,,0.00,Wunderground v.1.15,2014-01-03 00:42:00,
2014-01-02 19:47:00,4.6,0.1,29.92,NE,44,5.0,6.0,81,0.00,,,0.01,Wunderground v.1.15,2014-01-03 00:47:00,
2014-01-02 19:52:00,4.4,-0.1,29.92,NNE,33,5.0,8.0,81,0.00,,,0.01,Wunderground v.1.15,2014-01-03 00:52:00,
2014-01-02 19:58:00,4.3,-0.2,29.93,NNE,18,6.0,8.0,81,0.00,,,0.01,Wunderground v.1.15,2014-01-03 00:58:00,
2014-01-02 20:03:00,4.2,-0.3,29.92,ENE,76,6.0,7.0,81,0.00,,,0.01,Wunderground v.1.15,2014-01-03 01:03:00,
2014-01-02 20:08:00,4.2,-0.3,29.93,NE,42,6.0,8.0,81,0.00,,,0.02,Wunderground v.1.15,2014-01-03 01:08:00,
2014-01-02 20:13:00,4.2,-0.3,29.92,North,351,5.0,9.0,81,0.00,,,0.02,Wunderground v.1.15,2014-01-03 01:13:00,
2014-01-02 20:18:00,4.2,-0.3,29.91,NNE,25,5.0,9.0,81,0.00,,,0.02,Wunderground v.1.15,2014-01-03 01:18:00,
2014-01-02 20:23:00,4.1,-0.4,29.91,NNE,15,4.0,5.0,81,0.00,,,0.02,Wunderground v.1.15,2014-01-03 01:23:00,
2014-01-02 20:28:00,3.9,-0.6,29.91,NNE,32,4.0,6.0,81,0.00,,,0.02,Wunderground v.1.15,2014-01-03 01:28:00,
2014-01-02 20:33:00,3.7,-0.8,29.90,NNE,21,5.0,11.0,81,0.00,,,0.03,Wunderground v.1.15,2014-01-03 01:33:00,
2014-01-02 20:39:00,3.5,-1.0,29.90,NW,317,5.0,11.0,81,0.00,,,0.03,Wunderground v.1.15,2014-01-03 01:39:00,
2014-01-02 20:44:00,3.4,-1.1,29.90,East,79,5.0,13.0,81,0.00,,,0.03,Wunderground v.1.15,2014-01-03 01:44:00,
2014-01-02 20:49:00,3.2,-1.3,29.89,ENE,71,5.0,13.0,81,0.00,,,0.03,Wunderground v.1.15,2014-01-03 01:49:00,
2014-01-02 20:54:00,3.1,-1.4,29.89,East,86,6.0,8.0,81,0.00,,,0.03,Wunderground v.1.15,2014-01-03 01:54:00,
2014-01-02 21:01:00,2.9,-1.6,29.89,NW,313,6.0,6.0,81,0.00,,,0.03,Wunderground v.1.15,2014-01-03 02:01:00,
2014-01-02 21:06:00,2.8,-1.7,29.88,North,360,7.0,7.0,81,0.00,,,0.03,Wunderground v.1.15,2014-01-03 02:06:00,
2014-01-02 21:11:00,2.7,-1.8,29.88,NE,43,6.0,6.0,81,0.00,,,0.03,Wunderground v.1.15,2014-01-03 02:11:00,
2014-01-02 21:19:00,2.5,-2.0,29.87,NNE,26,6.0,7.0,81,0.00,,,0.03,Wunderground v.1.15,2014-01-03 02:19:00,
2014-01-02 21:26:00,2.4,-2.1,29.87,NNE,15,4.0,7.0,81,0.00,,,0.03,Wunderground v.1.15,2014-01-03 02:26:00,
2014-01-02 21:31:00,2.4,-2.1,29.86,NNW,329,4.0,4.0,81,0.00,,,0.03,Wunderground v.1.15,2014-01-03 02:31:00,
2014-01-02 21:36:00,2.2,-2.3,29.86,ENE,61,6.0,7.0,81,0.00,,,0.04,Wunderground v.1.15,2014-01-03 02:36:00,
2014-01-02 21:41:00,2.1,-2.4,29.86,NE,51,6.0,8.0,81,0.00,,,0.04,Wunderground v.1.15,2014-01-03 02:41:00,
2014-01-02 21:46:00,2.0,-2.5,29.85,NW,321,5.0,8.0,81,0.00,,,0.04,Wunderground v.1.15,2014-01-03 02:46:00,
2014-01-02 21:51:00,1.9,-2.6,29.85,NNW,341,5.0,5.0,81,0.00,,,0.04,Wunderground v.1.15,2014-01-03 02:51:00,
2014-01-02 21:56:00,1.8,-2.7,29.85,ENE,59,5.0,8.0,81,0.00,,,0.04,Wunderground v.1.15,2014-01-03 02:56:00,
2014-01-02 22:01:00,1.7,-2.8,29.85,NE,56,5.0,5.0,81,0.00,,,0.04,Wunderground v.1.15,2014-01-03 03:01:00,
2014-01-02 22:06:00,1.7,-2.8,29.85,East,80,5.0,7.0,81,0.00,,,0.05,Wunderground v.1.15,2014-01-03 03:06:00,
2014-01-02 22:12:00,1.6,-2.9,29.84,NE,44,4.0,7.0,81,0.00,,,0.05,Wunderground v.1.15,2014-01-03 03:12:00,
2014-01-02 22:17:00,1.5,-3.0,29.84,North,360,4.0,7.0,81,0.00,,,0.05,Wunderground v.1.15,2014-01-03 03:17:00,
2014-01-02 22:22:00,1.5,-3.0,29.83,NE,49,5.0,8.0,81,0.00,,,0.05,Wunderground v.1.15,2014-01-03 03:22:00,
2014-01-02 22:27:00,1.4,-3.1,29.84,NNE,31,5.0,10.0,81,0.00,,,0.05,Wunderground v.1.15,2014-01-03 03:27:00,
2014-01-02 22:32:00,1.4,-3.1,29.83,NE,37,6.0,9.0,81,0.00,,,0.05,Wunderground v.1.15,2014-01-03 03:32:00,
2014-01-02 22:37:00,1.3,-3.2,29.83,North,5,6.0,16.0,81,0.00,,,0.06,Wunderground v.1.15,2014-01-03 03:37:00,
2014-01-02 22:42:00,1.3,-3.2,29.83,North,11,6.0,6.0,81,0.00,,,0.06,Wunderground v.1.15,2014-01-03 03:42:00,
2014-01-02 22:47:00,1.2,-3.3,29.83,NE,34,6.0,6.0,81,0.00,,,0.06,Wunderground v.1.15,2014-01-03 03:47:00,
2014-01-02 22:52:00,1.1,-3.4,29.83,NE,40,6.0,6.0,81,0.00,,,0.06,Wunderground v.1.15,2014-01-03 03:52:00,
2014-01-02 22:57:00,1.0,-3.5,29.83,ENE,60,6.0,9.0,81,0.00,,,0.06,Wunderground v.1.15,2014-01-03 03:57:00,
2014-01-02 23:03:00,1.0,-3.5,29.83,NE,44,6.0,7.0,81,0.00,,,0.06,Wunderground v.1.15,2014-01-03 04:03:00,
2014-01-02 23:08:00,0.9,-3.6,29.83,WNW,282,5.0,7.0,81,0.00,,,0.06,Wunderground v.1.15,2014-01-03 04:08:00,
2014-01-02 23:13:00,0.9,-3.6,29.82,NNE,32,5.0,7.0,81,0.00,,,0.06,Wunderground v.1.15,2014-01-03 04:13:00,
2014-01-02 23:19:00,0.8,-3.7,29.82,NNE,19,5.0,10.0,81,0.00,,,0.06,Wunderground v.1.15,2014-01-03 04:19:00,
2014-01-02 23:24:00,0.8,-3.7,29.83,North,360,5.0,12.0,81,0.00,,,0.06,Wunderground v.1.15,2014-01-03 04:24:00,
2014-01-02 23:29:00,0.8,-3.7,29.83,North,5,5.0,12.0,81,0.00,,,0.06,Wunderground v.1.15,2014-01-03 04:29:00,
2014-01-02 23:34:00,0.8,-3.7,29.83,North,11,5.0,9.0,81,0.00,,,0.06,Wunderground v.1.15,2014-01-03 04:34:00,
2014-01-02 23:39:00,0.8,-3.7,29.83,NE,38,5.0,9.0,81,0.00,,,0.06,Wunderground v.1.15,2014-01-03 04:39:00,
2014-01-02 23:44:00,0.8,-3.7,29.83,NNE,28,5.0,8.0,81,0.00,,,0.06,Wunderground v.1.15,2014-01-03 04:44:00,
2014-01-02 23:49:00,0.8,-3.7,29.81,North,355,6.0,9.0,81,0.00,,,0.06,Wunderground v.1.15,2014-01-03 04:49:00,
2014-01-02 23:54:00,0.7,-3.8,29.81,ENE,61,7.0,12.0,81,0.00,,,0.06,Wunderground v.1.15,2014-01-03 04:54:00,
2014-01-02 23:59:00,0.7,-3.8,29.81,NNE,17,7.0,12.0,81,0.00,,,0.06,Wunderground v.1.15,2014-01-03 04:59:00,